TimeCDT,TemperatureF,Dew PointF,Humidity,Sea Level PressureIn,VisibilityMPH,Wind Direction,Wind SpeedMPH,Gust SpeedMPH,PrecipitationIn,Events,Conditions,WindDirDegrees,DateUTC
12:15 AM,53.6,42.8,67,30.03,10.0,ENE,6.9,-,N/A,,Overcast,70,2013-10-18 05:15:00
12:35 AM,55.4,42.8,63,30.03,10.0,East,3.5,-,N/A,,Overcast,80,2013-10-18 05:35:00
12:55 AM,55.4,42.8,63,30.02,10.0,East,3.5,-,N/A,,Overcast,80,2013-10-18 05:55:00
1:15 AM,55.4,42.8,63,30.02,10.0,Calm,Calm,-,N/A,,Overcast,0,2013-10-18 06:15:00
1:35 AM,55.4,42.8,63,30.02,10.0,ENE,8.1,-,N/A,,Overcast,70,2013-10-18 06:35:00
1:55 AM,55.4,42.8,63,30.03,10.0,NE,6.9,-,N/A,,Overcast,50,2013-10-18 06:55:00
2:15 AM,55.4,41.0,58,30.02,10.0,ENE,9.2,-,N/A,,Overcast,70,2013-10-18 07:15:00
2:35 AM,53.6,41.0,62,30.02,10.0,ENE,8.1,-,N/A,,Overcast,60,2013-10-18 07:35:00
2:55 AM,53.6,41.0,62,30.03,10.0,ENE,8.1,-,N/A,,Overcast,70,2013-10-18 07:55:00
3:15 AM,53.6,41.0,62,30.03,10.0,ENE,5.8,-,N/A,,Overcast,70,2013-10-18 08:15:00
3:35 AM,53.6,41.0,62,30.02,10.0,East,6.9,-,N/A,,Overcast,90,2013-10-18 08:35:00
3:55 AM,53.6,41.0,62,30.02,10.0,East,8.1,-,N/A,,Overcast,80,2013-10-18 08:55:00
4:15 AM,53.6,41.0,62,30.02,10.0,ENE,6.9,-,N/A,,Overcast,70,2013-10-18 09:15:00
4:35 AM,53.6,39.2,58,30.01,10.0,East,6.9,-,N/A,,Overcast,80,2013-10-18 09:35:00
4:55 AM,53.6,37.4,54,30.00,10.0,East,11.5,-,N/A,,Overcast,80,2013-10-18 09:55:00
5:15 AM,51.8,35.6,54,29.99,10.0,East,12.7,-,N/A,,Mostly Cloudy,80,2013-10-18 10:15:00
5:35 AM,51.8,35.6,54,30.00,10.0,NE,11.5,-,N/A,,Overcast,50,2013-10-18 10:35:00
5:55 AM,50.0,35.6,58,30.00,10.0,ENE,12.7,-,N/A,,Overcast,60,2013-10-18 10:55:00
6:15 AM,48.2,37.4,66,30.00,10.0,NE,13.8,-,N/A,,Mostly Cloudy,50,2013-10-18 11:15:00
6:35 AM,46.4,37.4,71,30.00,10.0,ENE,12.7,-,N/A,,Mostly Cloudy,60,2013-10-18 11:35:00
6:55 AM,46.4,39.2,76,30.03,10.0,NE,16.1,-,N/A,Rain,Light Rain,40,2013-10-18 11:55:00
7:15 AM,44.6,41.0,87,30.03,10.0,ENE,13.8,-,0.01,Rain,Rain,60,2013-10-18 12:15:00
7:35 AM,44.6,41.0,87,30.01,10.0,ENE,15.0,-,0.02,Rain,Light Rain,60,2013-10-18 12:35:00
7:55 AM,44.6,41.0,87,30.00,7.0,ENE,16.1,-,0.05,Rain,Rain,60,2013-10-18 12:55:00
8:15 AM,44.6,41.0,87,30.00,10.0,ENE,17.3,21.9,N/A,,Overcast,60,2013-10-18 13:15:00
8:35 AM,44.6,41.0,87,30.00,10.0,ENE,16.1,-,N/A,,Overcast,60,2013-10-18 13:35:00
8:55 AM,44.6,41.0,87,30.00,10.0,ENE,19.6,23.0,N/A,,Overcast,70,2013-10-18 13:55:00
9:15 AM,44.6,41.0,87,30.00,10.0,ENE,18.4,24.2,N/A,,Mostly Cloudy,70,2013-10-18 14:15:00
9:35 AM,44.6,41.0,87,30.02,10.0,ENE,20.7,24.2,N/A,,Overcast,70,2013-10-18 14:35:00
9:55 AM,44.6,41.0,87,30.03,10.0,ENE,19.6,-,N/A,,Overcast,60,2013-10-18 14:55:00
10:15 AM,44.6,41.0,87,30.02,10.0,ENE,17.3,-,N/A,,Overcast,70,2013-10-18 15:15:00
10:35 AM,44.6,41.0,87,30.04,10.0,NE,13.8,20.7,N/A,Thunderstorm,Overcast,50,2013-10-18 15:35:00
10:55 AM,44.6,41.0,87,30.08,10.0,North,13.8,-,N/A,Rain,Light Rain,360,2013-10-18 15:55:00
11:15 AM,44.6,42.8,93,30.05,5.0,NE,16.1,-,0.01,Rain,Light Rain,40,2013-10-18 16:15:00
11:35 AM,44.6,41.0,87,30.04,10.0,NE,18.4,-,0.01,,Overcast,50,2013-10-18 16:35:00
11:55 AM,44.6,41.0,87,30.05,10.0,NE,15.0,-,0.01,,Overcast,40,2013-10-18 16:55:00
12:15 PM,44.6,41.0,87,30.06,5.0,NE,19.6,-,N/A,,Overcast,40,2013-10-18 17:15:00
12:35 PM,44.6,41.0,87,30.06,2.5,NNE,17.3,21.9,0.01,Rain,Light Rain,30,2013-10-18 17:35:00
12:55 PM,44.6,41.0,87,30.07,2.0,NNE,20.7,26.5,0.02,Rain,Light Rain,20,2013-10-18 17:55:00
1:15 PM,42.8,41.0,93,30.07,1.8,NNE,16.1,27.6,0.02,Rain,Light Rain,20,2013-10-18 18:15:00
1:35 PM,42.8,41.0,93,30.06,2.5,NNE,23.0,27.6,0.03,Rain,Light Rain,20,2013-10-18 18:35:00
1:55 PM,42.8,39.2,87,30.07,4.0,North,21.9,27.6,0.03,Rain,Light Rain,10,2013-10-18 18:55:00
2:15 PM,41.0,39.2,93,30.07,4.0,North,23.0,28.8,0.01,Rain,Light Rain,10,2013-10-18 19:15:00
2:35 PM,41.0,37.4,87,30.07,7.0,North,19.6,26.5,0.02,,Light Drizzle,10,2013-10-18 19:35:00
2:55 PM,41.0,37.4,87,30.07,7.0,North,20.7,25.3,0.02,Thunderstorm,Overcast,10,2013-10-18 19:55:00
3:15 PM,39.2,35.6,87,30.09,10.0,North,21.9,29.9,N/A,,Overcast,360,2013-10-18 20:15:00
3:35 PM,39.2,35.6,87,30.10,5.0,North,18.4,28.8,N/A,,Overcast,10,2013-10-18 20:35:00
3:55 PM,39.2,35.6,87,30.10,4.0,North,20.7,28.8,N/A,,Light Drizzle,360,2013-10-18 20:55:00
4:15 PM,37.4,35.6,93,30.11,5.0,North,25.3,31.1,N/A,,Overcast,360,2013-10-18 21:15:00
4:35 PM,39.2,35.6,87,30.12,10.0,North,21.9,29.9,N/A,,Overcast,10,2013-10-18 21:35:00
4:55 PM,39.2,35.6,87,30.13,10.0,North,21.9,25.3,N/A,,Overcast,10,2013-10-18 21:55:00
5:15 PM,39.2,35.6,87,30.13,10.0,North,21.9,25.3,N/A,,Overcast,10,2013-10-18 22:15:00
5:35 PM,39.2,35.6,87,30.14,10.0,North,19.6,-,N/A,,Overcast,10,2013-10-18 22:35:00
5:55 PM,39.2,35.6,87,30.15,10.0,North,19.6,25.3,N/A,,Overcast,360,2013-10-18 22:55:00
6:15 PM,39.2,35.6,87,30.16,10.0,North,21.9,25.3,N/A,,Overcast,360,2013-10-18 23:15:00
6:35 PM,39.2,35.6,87,30.15,10.0,North,13.8,20.7,N/A,,Overcast,10,2013-10-18 23:35:00
6:55 PM,37.4,35.6,93,30.16,10.0,North,16.1,21.9,N/A,,Mostly Cloudy,360,2013-10-18 23:55:00
7:15 PM,39.2,35.6,87,30.17,10.0,North,12.7,19.6,N/A,,Mostly Cloudy,360,2013-10-19 00:15:00
7:35 PM,39.2,33.8,81,30.18,10.0,North,17.3,21.9,N/A,,Overcast,360,2013-10-19 00:35:00
7:55 PM,39.2,33.8,81,30.18,10.0,North,13.8,21.9,N/A,,Overcast,360,2013-10-19 00:55:00
8:15 PM,39.2,33.8,81,30.20,10.0,North,13.8,-,N/A,,Overcast,360,2013-10-19 01:15:00
8:35 PM,39.2,33.8,81,30.21,10.0,North,10.4,-,N/A,,Overcast,350,2013-10-19 01:35:00
8:55 PM,39.2,33.8,81,30.22,10.0,NNW,10.4,-,N/A,,Overcast,340,2013-10-19 01:55:00
9:15 PM,39.2,33.8,81,30.22,10.0,NNW,10.4,-,N/A,,Overcast,340,2013-10-19 02:15:00
9:35 PM,37.4,33.8,87,30.22,10.0,NNW,8.1,-,N/A,,Scattered Clouds,340,2013-10-19 02:35:00
9:55 PM,37.4,33.8,87,30.22,10.0,NNW,5.8,-,N/A,,Clear,330,2013-10-19 02:55:00
10:15 PM,35.6,32.0,87,30.22,10.0,North,4.6,-,N/A,,Clear,350,2013-10-19 03:15:00
10:35 PM,35.6,33.8,93,30.22,10.0,North,4.6,-,N/A,,Clear,350,2013-10-19 03:35:00
10:55 PM,35.6,32.0,87,30.22,10.0,NNW,3.5,-,N/A,,Clear,340,2013-10-19 03:55:00
11:15 PM,33.8,32.0,93,30.22,10.0,NW,5.8,-,N/A,,Clear,320,2013-10-19 04:15:00
11:35 PM,33.8,32.0,93,30.22,10.0,Calm,Calm,-,N/A,,Clear,0,2013-10-19 04:35:00
11:55 PM,33.8,32.0,93,30.23,10.0,WNW,4.6,-,N/A,,Clear,300,2013-10-19 04:55:00